TimePDT,TemperatureF,Dew PointF,Humidity,Sea Level PressureIn,VisibilityMPH,Wind Direction,Wind SpeedMPH,Gust SpeedMPH,PrecipitationIn,Events,Conditions,WindDirDegrees,DateUTC
12:55 AM,42.8,39.2,87,29.78,10.0,Calm,Calm,-,N/A,,Clear,0,2012-10-22 07:55:00
1:15 AM,42.8,39.2,87,29.77,9.0,Calm,Calm,-,N/A,,Clear,0,2012-10-22 08:15:00
1:55 AM,42.8,37.4,81,29.76,10.0,NE,6.9,-,N/A,,Clear,50,2012-10-22 08:55:00
2:55 AM,42.8,35.6,76,29.75,10.0,East,6.9,-,N/A,,Clear,80,2012-10-22 09:55:00
3:15 AM,41.0,35.6,81,29.74,10.0,NE,4.6,-,N/A,,Clear,40,2012-10-22 10:15:00
3:35 AM,42.8,35.6,76,29.73,10.0,East,6.9,-,N/A,,Clear,80,2012-10-22 10:35:00
4:15 AM,41.0,35.6,81,29.71,10.0,East,6.9,-,N/A,,Partly Cloudy,80,2012-10-22 11:15:00
4:35 AM,41.0,35.6,81,29.70,10.0,ENE,6.9,-,N/A,,Scattered Clouds,60,2012-10-22 11:35:00
5:15 AM,41.0,33.8,76,29.69,10.0,ENE,5.8,-,N/A,,Overcast,70,2012-10-22 12:15:00
5:35 AM,41.0,33.8,76,29.68,10.0,ENE,9.2,-,N/A,,Mostly Cloudy,60,2012-10-22 12:35:00
6:55 AM,42.8,32.0,66,29.66,10.0,ENE,9.2,18.4,N/A,,Scattered Clouds,70,2012-10-22 13:55:00
7:35 AM,42.8,32.0,66,29.65,10.0,NE,6.9,-,N/A,,Scattered Clouds,50,2012-10-22 14:35:00
7:55 AM,42.8,32.0,66,29.64,10.0,ENE,10.4,16.1,N/A,,Scattered Clouds,70,2012-10-22 14:55:00
8:15 AM,44.6,32.0,61,29.64,10.0,ENE,6.9,-,N/A,,Mostly Cloudy,60,2012-10-22 15:15:00
8:35 AM,44.6,32.0,61,29.64,10.0,ENE,9.2,18.4,N/A,,Overcast,60,2012-10-22 15:35:00
8:55 AM,44.6,32.0,61,29.64,10.0,NE,8.1,16.1,N/A,,Overcast,50,2012-10-22 15:55:00
9:35 AM,44.6,32.0,61,29.64,10.0,NE,11.5,20.7,N/A,,Scattered Clouds,40,2012-10-22 16:35:00
9:55 AM,44.6,32.0,61,29.64,10.0,Calm,Calm,-,N/A,,Mostly Cloudy,0,2012-10-22 16:55:00
10:15 AM,44.6,32.0,61,29.64,10.0,NE,6.9,-,N/A,,Mostly Cloudy,50,2012-10-22 17:15:00
10:35 AM,46.4,32.0,57,29.63,10.0,NE,12.7,17.3,N/A,,Mostly Cloudy,50,2012-10-22 17:35:00
10:55 AM,46.4,33.8,62,29.62,10.0,NNE,5.8,-,N/A,,Scattered Clouds,20,2012-10-22 17:55:00
11:15 AM,46.4,32.0,57,29.62,10.0,NNE,5.8,-,N/A,,Clear,20,2012-10-22 18:15:00
11:35 AM,46.4,33.8,62,29.61,10.0,NNE,4.6,-,N/A,,Clear,20,2012-10-22 18:35:00
11:55 AM,48.2,32.0,54,29.61,10.0,North,5.8,-,N/A,,Partly Cloudy,10,2012-10-22 18:55:00
12:15 PM,48.2,33.8,58,29.60,10.0,NNE,6.9,-,N/A,,Partly Cloudy,30,2012-10-22 19:15:00
12:35 PM,48.2,35.6,62,29.59,10.0,North,5.8,-,N/A,,Partly Cloudy,360,2012-10-22 19:35:00
1:15 PM,48.2,35.6,62,29.58,10.0,North,4.6,-,N/A,,Partly Cloudy,10,2012-10-22 20:15:00
1:35 PM,50.0,35.6,58,29.58,10.0,North,4.6,-,N/A,,Scattered Clouds,10,2012-10-22 20:35:00
1:55 PM,48.2,37.4,66,29.57,10.0,North,5.8,-,N/A,,Partly Cloudy,360,2012-10-22 20:55:00
2:15 PM,48.2,39.2,71,29.57,10.0,North,10.4,-,N/A,,Mostly Cloudy,350,2012-10-22 21:15:00
2:35 PM,48.2,39.2,71,29.57,10.0,North,6.9,-,N/A,,Scattered Clouds,350,2012-10-22 21:35:00
3:15 PM,48.2,37.4,66,29.57,10.0,Calm,Calm,-,N/A,Rain,Light Rain,0,2012-10-22 22:15:00
3:35 PM,48.2,37.4,66,29.58,9.0,ESE,3.5,-,N/A,Rain,Light Rain,120,2012-10-22 22:35:00
3:55 PM,46.4,39.2,76,29.58,8.0,Calm,Calm,-,N/A,Rain,Light Rain,0,2012-10-22 22:55:00
4:15 PM,46.4,41.0,81,29.58,10.0,Calm,Calm,-,N/A,Rain,Light Rain,0,2012-10-22 23:15:00
4:35 PM,46.4,39.2,76,29.58,7.0,North,-9999.0,-,N/A,Rain,Light Rain,0,2012-10-22 23:35:00
4:55 PM,46.4,39.2,76,29.58,9.0,Calm,Calm,-,N/A,Rain,Light Rain,0,2012-10-22 23:55:00
5:35 PM,44.6,41.0,87,29.58,7.0,Calm,Calm,-,N/A,Rain,Light Rain,0,2012-10-23 00:35:00
6:55 PM,44.6,42.8,93,29.60,7.0,Calm,Calm,-,N/A,Rain,Light Rain,0,2012-10-23 01:55:00
7:15 PM,44.6,42.8,93,29.60,7.0,Calm,Calm,-,N/A,Rain,Light Rain,0,2012-10-23 02:15:00
7:55 PM,42.8,42.8,100,29.60,10.0,Calm,Calm,-,N/A,Rain,Light Rain,0,2012-10-23 02:55:00
8:35 PM,42.8,41.0,93,29.61,7.0,Calm,Calm,-,N/A,Rain,Light Rain,0,2012-10-23 03:35:00
9:15 PM,42.8,41.0,93,29.61,7.0,Calm,Calm,-,N/A,Rain,Light Rain,0,2012-10-23 04:15:00
9:35 PM,42.8,41.0,93,29.61,8.0,Calm,Calm,-,N/A,Rain,Light Rain,0,2012-10-23 04:35:00
9:55 PM,42.8,41.0,93,29.62,8.0,Calm,Calm,-,N/A,Rain,Light Rain,0,2012-10-23 04:55:00
10:35 PM,42.8,41.0,93,29.62,7.0,Calm,Calm,-,N/A,Rain,Light Rain,0,2012-10-23 05:35:00
11:15 PM,42.8,41.0,93,29.62,5.0,East,4.6,-,N/A,Rain,Light Rain,100,2012-10-23 06:15:00
11:55 PM,42.8,41.0,93,29.63,5.0,East,5.8,-,N/A,Rain,Light Rain,80,2012-10-23 06:55:00